When you browse on this site, cookies collect data to enhance your experience and personalize the content and advertising you see.
Visit our Privacy Policy to learn more. By continuing to use the site, you agree to this use of cookies and data.
  • In Netherlands
  • List of Countries
  • For 7 days
  • Water Temperature
  • Satellite Maps
  • Weather Map
  • Weather Widgets
  • user-avatar
    Login

    Hourly Weather Boa Vista

    Today, 27 May, Monday

    Time Temperature Precipitation Wind Pressure Humidity
    00:00 +28°C° 0 mm 1 mps 753 mmHg 81%
    01:00 +27°C° 0 mm 1 mps 753 mmHg 82%
    02:00 +27°C° 0 mm 1 mps 753 mmHg 83%
    03:00 +27°C° 0 mm 1 mps 753 mmHg 84%
    04:00 +26°C° 0 mm 1 mps 753 mmHg 85%
    05:00 +26°C° 0 mm 1 mps 753 mmHg 86%
    06:00 +27°C° 0 mm 1 mps 753 mmHg 83%
    07:00 +28°C° 0 mm 2 mps 754 mmHg 79%
    08:00 +29°C° 0 mm 2 mps 754 mmHg 75%
    09:00 +30°C° 0.4 mm 2 mps 754 mmHg 72%
    10:00 +31°C° 0.4 mm 2 mps 754 mmHg 68%
    11:00 +34°C° 0.4 mm 3 mps 753 mmHg 64%
    12:00 +34°C° 0.3 mm 2 mps 753 mmHg 61%
    13:00 +35°C° 0.3 mm 2 mps 752 mmHg 57%
    14:00 +36°C° 0.3 mm 2 mps 751 mmHg 54%
    15:00 +34°C° 0.3 mm 1 mps 751 mmHg 57%
    16:00 +34°C° 0.3 mm 1 mps 750 mmHg 60%
    17:00 +33°C° 0.3 mm 1 mps 750 mmHg 63%
    18:00 +32°C° 0.3 mm 1 mps 751 mmHg 68%
    19:00 +30°C° 0.3 mm 2 mps 751 mmHg 74%
    20:00 +29°C° 0.3 mm 2 mps 752 mmHg 79%
    21:00 +29°C° 0 mm 2 mps 752 mmHg 80%
    22:00 +28°C° 0 mm 2 mps 753 mmHg 81%
    23:00 +28°C° 0 mm 2 mps 753 mmHg 82%

    Tomorrow, 28 May, Tuesday

    Time Temperature Precipitation Wind Pressure Humidity
    00:00 +28°C° 0.3 mm 2 mps 753 mmHg 83%
    01:00 +27°C° 0.3 mm 2 mps 752 mmHg 85%
    02:00 +27°C° 0.3 mm 1 mps 752 mmHg 87%
    03:00 +27°C° 1.8 mm 1 mps 752 mmHg 87%
    04:00 +27°C° 1.8 mm 2 mps 752 mmHg 87%
    05:00 +27°C° 1.8 mm 2 mps 752 mmHg 87%
    06:00 +27°C° 0.3 mm 2 mps 753 mmHg 87%
    07:00 +27°C° 0.3 mm 3 mps 754 mmHg 87%
    08:00 +27°C° 0.3 mm 3 mps 754 mmHg 87%
    09:00 +28°C° 0.1 mm 3 mps 754 mmHg 83%
    10:00 +29°C° 0.1 mm 3 mps 755 mmHg 79%
    11:00 +30°C° 0.1 mm 4 mps 755 mmHg 76%
    12:00 +30°C° 0.3 mm 3 mps 754 mmHg 78%
    13:00 +29°C° 0.3 mm 2 mps 753 mmHg 81%
    14:00 +28°C° 0.3 mm 2 mps 752 mmHg 84%
    15:00 +28°C° 0 mm 2 mps 751 mmHg 84%
    16:00 +28°C° 0 mm 1 mps 751 mmHg 84%
    17:00 +28°C° 0 mm 1 mps 750 mmHg 84%
    18:00 +28°C° 0 mm 1 mps 751 mmHg 86%
    19:00 +25°C° 0 mm 0 mps 752 mmHg 88%
    20:00 +25°C° 0 mm 0 mps 752 mmHg 90%
    21:00 +25°C° 0.1 mm 0 mps 753 mmHg 89%
    22:00 +25°C° 0.1 mm 0 mps 753 mmHg 89%
    23:00 +25°C° 0.1 mm 0 mps 753 mmHg 88%

    Day after tomorrow, 29 May, Wednesday

    Time Temperature Precipitation Wind Pressure Humidity
    00:00 +24°C° 0.1 mm 0 mps 753 mmHg 89%
    01:00 +24°C° 0.1 mm 0 mps 752 mmHg 89%
    02:00 +24°C° 0.1 mm 0 mps 752 mmHg 89%
    03:00 +26°C° 0.3 mm 1 mps 752 mmHg 90%
    04:00 +26°C° 0.3 mm 1 mps 752 mmHg 91%
    05:00 +26°C° 0.3 mm 1 mps 752 mmHg 92%
    06:00 +27°C° 0.2 mm 1 mps 753 mmHg 89%
    07:00 +27°C° 0.2 mm 2 mps 753 mmHg 85%
    08:00 +28°C° 0.2 mm 2 mps 754 mmHg 82%
    09:00 +30°C° 1.1 mm 3 mps 754 mmHg 78%
    10:00 +31°C° 1.1 mm 3 mps 754 mmHg 73%
    11:00 +33°C° 1.1 mm 4 mps 753 mmHg 69%
    12:00 +33°C° 0.4 mm 4 mps 753 mmHg 67%
    13:00 +34°C° 0.4 mm 4 mps 752 mmHg 65%
    14:00 +35°C° 0.4 mm 4 mps 751 mmHg 62%
    15:00 +34°C° 0.9 mm 3 mps 750 mmHg 66%
    16:00 +33°C° 0.9 mm 3 mps 750 mmHg 70%
    17:00 +32°C° 0.9 mm 2 mps 750 mmHg 73%
    18:00 +31°C° 0.7 mm 2 mps 750 mmHg 77%
    19:00 +29°C° 0.7 mm 1 mps 751 mmHg 81%
    20:00 +28°C° 0.7 mm 1 mps 752 mmHg 84%
    21:00 +28°C° 0 mm 1 mps 752 mmHg 85%
    22:00 +28°C° 0 mm 1 mps 752 mmHg 86%
    23:00 +27°C° 0 mm 1 mps 753 mmHg 86%

    30 May, Thursday

    Time Temperature Precipitation Wind Pressure Humidity
    00:00 +27°C° 0.4 mm 1 mps 752 mmHg 87%
    01:00 +27°C° 0.4 mm 1 mps 752 mmHg 88%
    02:00 +26°C° 0.4 mm 2 mps 751 mmHg 89%
    03:00 +26°C° 0.5 mm 2 mps 752 mmHg 90%
    04:00 +26°C° 0.5 mm 2 mps 752 mmHg 91%
    05:00 +26°C° 0.5 mm 2 mps 752 mmHg 91%
    06:00 +27°C° 0.5 mm 2 mps 753 mmHg 89%
    07:00 +27°C° 0.5 mm 3 mps 753 mmHg 87%
    08:00 +28°C° 0.5 mm 3 mps 754 mmHg 84%
    09:00 +29°C° 1.6 mm 3 mps 754 mmHg 81%
    10:00 +30°C° 1.6 mm 3 mps 754 mmHg 77%
    11:00 +31°C° 1.6 mm 3 mps 753 mmHg 74%
    12:00 +33°C° 0.5 mm 3 mps 752 mmHg 69%
    13:00 +34°C° 0.5 mm 3 mps 751 mmHg 65%
    14:00 +35°C° 0.5 mm 3 mps 750 mmHg 60%
    15:00 +34°C° 0.9 mm 2 mps 750 mmHg 64%
    16:00 +34°C° 0.9 mm 2 mps 750 mmHg 67%
    17:00 +32°C° 0.9 mm 1 mps 749 mmHg 70%
    18:00 +31°C° 0.4 mm 1 mps 750 mmHg 74%
    19:00 +30°C° 0.4 mm 1 mps 751 mmHg 78%
    20:00 +29°C° 0.4 mm 1 mps 751 mmHg 83%
    21:00 +28°C° 1.8 mm 1 mps 752 mmHg 85%
    22:00 +28°C° 1.8 mm 2 mps 752 mmHg 87%
    23:00 +27°C° 1.8 mm 2 mps 752 mmHg 89%

    31 May, Friday

    Time Temperature Precipitation Wind Pressure Humidity
    00:00 +27°C° 0.5 mm 2 mps 752 mmHg 89%
    01:00 +27°C° 0.5 mm 2 mps 752 mmHg 89%
    02:00 +27°C° 0.5 mm 2 mps 751 mmHg 90%
    03:00 +27°C° 1.2 mm 2 mps 751 mmHg 90%
    04:00 +27°C° 1.2 mm 2 mps 751 mmHg 89%
    05:00 +26°C° 1.2 mm 3 mps 752 mmHg 89%
    06:00 +27°C° 0.2 mm 3 mps 752 mmHg 86%
    07:00 +28°C° 0.2 mm 3 mps 753 mmHg 83%
    08:00 +29°C° 0.2 mm 4 mps 754 mmHg 80%
    09:00 +30°C° 0.2 mm 4 mps 753 mmHg 74%
    10:00 +32°C° 0.2 mm 4 mps 753 mmHg 69%
    11:00 +34°C° 0.2 mm 4 mps 753 mmHg 63%
    12:00 +34°C° 0.2 mm 4 mps 752 mmHg 61%
    13:00 +35°C° 0.2 mm 4 mps 751 mmHg 60%
    14:00 +35°C° 0.2 mm 4 mps 750 mmHg 58%
    15:00 +35°C° 0.1 mm 3 mps 750 mmHg 61%
    16:00 +34°C° 0.1 mm 3 mps 750 mmHg 63%
    17:00 +34°C° 0.1 mm 2 mps 749 mmHg 65%
    18:00 +32°C° 0.2 mm 2 mps 750 mmHg 69%
    19:00 +31°C° 0.2 mm 2 mps 751 mmHg 73%
    20:00 +29°C° 0.2 mm 1 mps 751 mmHg 77%
    21:00 +29°C° 0.5 mm 1 mps 752 mmHg 79%
    22:00 +28°C° 0.5 mm 1 mps 752 mmHg 82%
    23:00 +28°C° 0.5 mm 2 mps 752 mmHg 85%

    1 June, Saturday

    Time Temperature Precipitation Wind Pressure Humidity
    00:00 +27°C° 0.7 mm 2 mps 752 mmHg 87%
    01:00 +27°C° 0.7 mm 1 mps 751 mmHg 88%
    02:00 +27°C° 0.7 mm 1 mps 751 mmHg 90%
    03:00 +27°C° 0 mm 1 mps 751 mmHg 90%
    04:00 +26°C° 0 mm 1 mps 751 mmHg 91%
    05:00 +26°C° 0 mm 1 mps 752 mmHg 91%
    06:00 +27°C° 0 mm 2 mps 752 mmHg 88%
    07:00 +28°C° 0 mm 2 mps 753 mmHg 84%
    08:00 +29°C° 0 mm 3 mps 753 mmHg 80%
    09:00 +30°C° 1 mm 3 mps 753 mmHg 76%
    10:00 +31°C° 1 mm 3 mps 753 mmHg 71%
    11:00 +33°C° 1 mm 3 mps 753 mmHg 67%
    12:00 +34°C° 0.4 mm 3 mps 752 mmHg 64%
    13:00 +34°C° 0.4 mm 3 mps 751 mmHg 62%
    14:00 +35°C° 0.4 mm 3 mps 750 mmHg 60%
    15:00 +34°C° 0.7 mm 3 mps 750 mmHg 63%
    16:00 +34°C° 0.7 mm 2 mps 750 mmHg 66%
    17:00 +32°C° 0.7 mm 2 mps 750 mmHg 69%
    18:00 +31°C° 0.7 mm 2 mps 750 mmHg 74%
    19:00 +30°C° 0.7 mm 1 mps 751 mmHg 79%
    20:00 +29°C° 0.7 mm 1 mps 751 mmHg 84%
    21:00 +28°C° 0.2 mm 1 mps 752 mmHg 84%
    22:00 +28°C° 0.2 mm 1 mps 752 mmHg 85%
    23:00 +28°C° 0.2 mm 1 mps 752 mmHg 86%
    Show more